{"data":{"norad_id":60409,"intl_designator":"2024-141M","name":"STARLINK-11174 [DTC]","alt_names":[],"object_type":"PAYLOAD","status":"ACTIVE","operator":null,"country":"US","launch_date":"2024-08-10","launch_site_code":"AFETR","launch_vehicle":null,"mission":null,"orbit_class":"UNKNOWN","rcs_meters":null,"size_class":null,"mass_kg":null,"dimensions":null,"purposes":["comms"],"wikipedia_slug":null,"has_3d_model":false,"image_url":null,"decayed_at":null,"tle_current":{"epoch":"2026-09-21T05:15:54.047520Z","epoch_age_seconds":123404,"freshness":"FRESH","line1":"1 60409U 24141M   26264.21937555 -.00000686  00000+0 -80065-6 0  9994","line2":"2 60409  53.1654 202.3228 0001424  78.6188 281.4990 15.69707387122408","mean_motion":15.69707387,"eccentricity":0.0001424,"inclination_deg":53.1654,"raan_deg":202.3228,"arg_perigee_deg":78.6188,"mean_anomaly_deg":281.499,"bstar":-8.0065e-7,"rev_number":12240,"period_min":91.736842925362,"perigee_km":358.77475497311,"apogee_km":360.69370069879,"semimajor_km":6737.8712278359,"source":"CELESTRAK","updated_at":"2026-09-22T09:00:49.231020Z"}}}